GW5365 Weather Reports


Display with metric or nautical units.
time (UTC)temp
F
wind
direction
speed
MPH
gust
MPH
rain 1hr
in
rain 24hr
in
rain mn
in
humidity
%
barometer
mb
20260507132640 63 180 7.0 7.0 0.02 0.02 0.02 68 1010.7
20260507131640 68 112 5.0 5.0 0.00 0.00 0.00 66 1010.6
20260507130640 69 90 3.0 3.0 0.00 0.00 0.00 44 1010.2
20260507125641 69 112 5.0 5.0 0.00 0.00 0.00 41 1010.0
20260507124641 68 45 1.0 1.0 0.00 0.00 0.00 43 1010.1
20260507123641 69 270 7.0 7.0 0.00 0.00 0.00 42 1010.2
20260507122640 69 68 5.0 5.0 0.00 0.00 0.00 42 1010.4
20260507121642 68 0 5.0 5.0 0.00 0.00 0.00 41 1010.4
20260507120640 68 270 10.0 10.0 0.00 0.00 0.00 42 1010.6
20260507115642 68 270 5.0 5.0 0.00 0.00 0.00 42 1010.8
20260507114640 68 90 5.0 5.0 0.00 0.00 0.00 44 1010.9
20260507111641 67 270 6.0 6.0 0.00 0.00 0.00 43 1011.2
20260507110641 67 270 5.0 5.0 0.00 0.00 0.00 46 1011.3
20260507105641 66 248 5.0 5.0 0.00 0.00 0.00 46 1011.3
20260507104640 66 248 5.0 5.0 0.00 0.00 0.00 47 1011.4
20260507103641 67 22 6.0 6.0 0.00 0.00 0.00 50 1011.4
20260507101639 64 90 2.0 2.0 0.00 0.00 0.00 53 1011.6
20260507100640 64 112 7.0 7.0 0.00 0.00 0.00 53 1011.6
20260507095640 64 45 0.0 0.0 0.00 0.00 0.00 55 1011.7
20260507094641 63 270 1.0 1.0 0.00 0.00 0.00 54 1011.7
20260507093640 64 270 3.0 3.0 0.00 0.00 0.00 54 1011.7
20260507092642 63 68 2.0 2.0 0.00 0.00 0.00 53 1011.6
20260507090640 60 68 1.0 1.0 0.00 0.00 0.00 56 1011.5
20260507085640 60 68 2.0 2.0 0.00 0.00 0.00 56 1011.6
20260507084640 61 68 4.0 4.0 0.00 0.00 0.00 56 1011.8
20260507083641 60 270 2.0 2.0 0.00 0.00 0.00 56 1011.8
20260507075641 59 270 2.0 2.0 0.00 0.00 0.00 57 1011.6
20260507073641 59 315 5.0 5.0 0.00 0.00 0.00 59 1011.6
20260507072642 59 270 2.0 2.0 0.00 0.00 0.00 62 1011.5
20260507071641 58 248 2.0 2.0 0.00 0.00 0.00 66 1011.5
20260507070640 57 248 0.0 0.0 0.00 0.00 0.00 68 1011.4
20260507065642 57 248 2.0 2.0 0.00 0.00 0.00 70 1011.5
20260507062640 57 270 1.0 1.0 0.00 0.00 0.00 63 1011.0
20260507061641 56 270 4.0 4.0 0.00 0.00 0.00 63 1010.9
20260507060641 55 270 5.0 5.0 0.00 0.00 0.00 65 1010.8
20260507055640 55 248 5.0 5.0 0.00 0.00 0.00 66 1010.8
20260507054640 55 270 7.0 7.0 0.00 0.00 0.00 67 1010.7
20260507053640 54 270 3.0 3.0 0.00 0.00 0.00 67 1010.7
20260507052640 54 292 2.0 2.0 0.00 0.00 0.00 70 1010.6
20260507045640 54 292 3.0 3.0 0.00 0.00 0.00 67 1010.3
20260507044640 54 292 0.0 0.0 0.00 0.00 0.00 68 1010.3
20260507043640 54 292 0.0 0.0 0.00 0.00 0.00 67 1010.2
20260507042640 54 292 2.0 2.0 0.00 0.00 0.00 67 1010.2
20260507041639 55 292 1.0 1.0 0.00 0.00 0.00 67 1010.1
20260507035641 56 292 1.0 1.0 0.00 0.00 0.00 65 1010.0
20260507034640 56 112 3.0 3.0 0.00 0.00 0.00 64 1010.0
20260507033641 56 112 3.0 3.0 0.00 0.00 0.00 64 1010.0
20260507031642 56 112 1.0 1.0 0.00 0.00 0.00 65 1010.0
20260507030641 57 112 3.0 3.0 0.00 0.00 0.00 64 1010.0
20260507025640 57 112 1.0 1.0 0.00 0.00 0.00 61 1010.0
20260507024639 58 135 0.0 0.0 0.00 0.00 0.00 61 1010.0
20260507023640 58 135 3.0 3.0 0.00 0.00 0.00 62 1010.0
20260507021640 59 68 4.0 4.0 0.00 0.00 0.00 62 1010.1
20260507020641 59 68 2.0 2.0 0.00 0.00 0.00 62 1010.0
20260507015640 60 68 3.0 3.0 0.00 0.00 0.00 61 1010.1
20260507014640 60 45 2.0 2.0 0.00 0.00 0.00 58 1010.1
20260507013640 60 90 2.0 2.0 0.00 0.00 0.00 57 1010.1
20260507012640 60 270 3.0 3.0 0.00 0.00 0.00 57 1010.2
20260507011641 60 270 2.0 2.0 0.00 0.00 0.00 51 1010.2
20260507010640 61 270 0.0 0.0 0.00 0.00 0.00 51 1010.2
20260507005640 62 270 2.0 2.0 0.00 0.00 0.00 46 1010.3
20260507004641 62 270 2.0 2.0 0.00 0.00 0.00 45 1010.3
20260507003640 62 270 3.0 3.0 0.00 0.00 0.00 45 1010.2
20260507002641 62 270 0.0 0.0 0.00 0.00 0.00 44 1010.2
20260507001641 63 248 5.0 5.0 0.00 0.00 0.00 43 1010.5
20260507000640 63 292 10.0 10.0 0.00 0.00 0.00 41 1010.6
20260506235640 63 158 7.0 7.0 0.00 0.00 0.00 43 1010.3
20260506233640 63 180 5.0 5.0 0.00 0.00 0.00 42 1010.3
20260506231640 63 180 2.0 2.0 0.00 0.00 0.00 39 1010.2
20260506225640 64 180 4.0 4.0 0.00 0.00 0.00 38 1010.0
20260506224640 64 180 1.0 1.0 0.00 0.00 0.00 38 1010.0
20260506223640 64 180 2.0 2.0 0.00 0.00 0.00 38 1010.0
20260506222641 64 180 3.0 3.0 0.00 0.00 0.00 37 1010.0
20260506221640 64 158 2.0 2.0 0.00 0.00 0.00 36 1010.1
20260506220640 63 180 2.0 2.0 0.00 0.00 0.00 38 1010.1
20260506215639 63 180 3.0 3.0 0.00 0.00 0.00 38 1010.1
20260506214640 63 180 2.0 2.0 0.00 0.00 0.00 38 1010.2
20260506213641 63 202 2.0 2.0 0.00 0.00 0.00 37 1010.2
20260506212640 64 202 3.0 3.0 0.00 0.00 0.00 36 1010.2
20260506211640 65 202 2.0 2.0 0.00 0.00 0.00 35 1010.1
20260506210640 65 225 1.0 1.0 0.00 0.00 0.00 32 1009.9
20260506205641 65 248 0.0 0.0 0.00 0.00 0.00 32 1009.9
20260506204641 66 248 0.0 0.0 0.00 0.00 0.00 33 1009.8
20260506203640 67 248 1.0 1.0 0.00 0.00 0.00 29 1009.8
20260506202641 67 248 3.0 3.0 0.00 0.00 0.00 28 1009.7
20260506201640 67 248 3.0 3.0 0.00 0.00 0.00 28 1009.6
20260506200640 67 248 1.0 1.0 0.00 0.00 0.00 29 1009.5
20260506194641 68 248 2.0 2.0 0.00 0.00 0.00 29 1009.4
20260506193640 68 292 2.0 2.0 0.00 0.00 0.00 30 1009.3
20260506192640 68 270 2.0 2.0 0.00 0.00 0.00 30 1009.2
20260506191639 69 248 3.0 3.0 0.00 0.00 0.00 30 1009.0
20260506185640 70 248 2.0 2.0 0.00 0.00 0.00 30 1009.0
20260506184641 70 248 5.0 5.0 0.00 0.00 0.00 30 1009.0
20260506181640 70 292 6.0 6.0 0.00 0.00 0.00 30 1008.8
20260506180641 70 270 6.0 6.0 0.00 0.00 0.00 31 1009.0
20260506175641 70 270 6.0 6.0 0.00 0.00 0.00 30 1009.0
20260506174641 70 270 5.0 5.0 0.00 0.00 0.00 30 1009.1
20260506173640 70 270 9.0 9.0 0.00 0.00 0.00 31 1009.1
20260506171640 71 270 8.0 8.0 0.00 0.00 0.00 30 1009.2
20260506170641 71 270 9.0 9.0 0.00 0.00 0.00 30 1009.2
20260506165642 71 292 6.0 6.0 0.00 0.00 0.00 31 1009.3
20260506163640 70 315 8.0 8.0 0.00 0.00 0.00 31 1009.2
20260506161640 71 292 6.0 6.0 0.00 0.00 0.00 31 1009.3
20260506160640 71 315 7.0 7.0 0.00 0.00 0.00 31 1009.4
20260506153641 71 45 5.0 5.0 0.00 0.00 0.00 31 1009.5
20260506152640 71 292 8.0 8.0 0.00 0.00 0.00 31 1009.6
20260506151641 71 270 8.0 8.0 0.00 0.00 0.00 31 1009.6
20260506144642 71 270 10.0 10.0 0.00 0.00 0.00 33 1009.9
20260506142641 72 270 8.0 8.0 0.00 0.00 0.00 32 1010.2
20260506140640 71 315 4.0 4.0 0.00 0.00 0.00 32 1010.5
20260506134640 71 270 7.0 7.0 0.00 0.00 0.00 32 1010.5
20260506133641 70 315 3.0 3.0 0.00 0.00 0.00 32 1010.7